HORYU 4

Satellite information

Favourite Embed

Satellite Type and Status

PAYLOADIN ORBIT

Key statistics

Satellite HORYU 4 at a glance.

Uptime

3368

Days in orbit

Revolutions

≈ 15.4

Per day

Orbit

LEO

Low Earth Orbit

Inclination

31.0

Latest

Satellite identification and parameters

Extended collection of information and parameters for HORYU 4.

Object identification

Identified? True

Debris? False

Object name: HORYU 4

International designator: 2016-012D

Object number (NORAD): 41340

Object ID (CCSDS): 41340

Country: JAPAN (JPN)

Current information (Y/N): Y

RCS size: MEDIUM

Orbital parameters

Period: 93.784 minutes

Inclination: 30.9972 deg

SMA: 6837.758 km

Apoapsis: 464.581 km

Periapsis: 454.665 km

RAAN: 351.3041 deg

Eccentricy: 0.0007251

Argument of periapsis: 67.4975 deg

Mean anomaly: 292.6437 deg

Mean motion: 15.35437702 rev/day

Mean motion (dot): 0.00021699 rev/day2

B* drag term: 0.00060641 1/REarth

Two-line elements (TLE)

Creation date: May 8, 2025, 3:01 a.m.

Reference frame: TEME

Reference center: EARTH

Epoch: May 7, 2025, 10:13 p.m. UTC

TLE line 0: 0 HORYU 4

TLE line 1: 1 41340U 16012D 25127.92575388 .00021699 00000-0 60641-3 0 9993

TLE line 2: 2 41340 30.9972 351.3041 0007251 67.4975 292.6437 15.35437702507769

Live tracking on map

Real-time ground track for satellite HORYU 4.

In-orbit conjunctions

There are no conjunctions computed for HORYU 4, at the moment. Check back to stay up to date, as we update our databases every day.

Go to all conjunctions

Associated space launch

Astro-H is the 6th satellite in a series of X-ray telescopes by JAXA and ISAS. Its 4 instruments on board will cover the X-ray and Gamma ray regions. This region consists of photons with energy ranging from 0.3-600keV, and the telescope will provide the highest resolution ever achieved of 3-10 keV bands. The craft weighs 2.7 tonnes and will be placed into a circular orbit 575km above the ground, with an inclination of 31 degrees.

HORYU 4 was lifted into orbit during the mission ‘H-IIA 202 | Astro-H (Hitomi)’, on board a H-IIA space rocket.

The launch took place on Feb. 17, 2016, 8:45 a.m. from Yoshinobu Launch Complex LP-1.

For more information about the launch, click the button.

Launch to space H-IIA 202 | Astro-H (Hitomi)
H-IIA 202 | Astro-H (Hitomi)

Agency: N/A

Status: Launch Successful

Launch date: Feb. 17, 2016, 8:45 a.m. UTC

Rocket: H-IIA

Launch pad: Yoshinobu Launch Complex LP-1

Location: Tanegashima Space Center, Japan

...

Latest news about this satellite

There are no fresh news available about this satellite. Check back as we update our databases every day.


Newsletter sign-up

Weekly statistics, charts and insights to help you stay on top of the space industry.